This is the latest recevied weather packets stored in our database for station/object OE9GTV. If no packets are shown the sender has not sent any weather packets the latest 1 day(s).
| Time | Temp. | Humidity | Pressure | Rain* | Wind** | Luminosity | Snow |
|---|---|---|---|---|---|---|---|
| 1778011273 | 14.44° C | 64% | 1006.9 hPa | 0 mm | 0.45 m/s, 216° | 0 W/m² | - |
| 1778010673 | 15° C | 63% | 1006.7 hPa | 0 mm | 0.89 m/s, 216° | 0 W/m² | - |
| 1778010073 | 15° C | 63% | 1006.6 hPa | 0 mm | 1.34 m/s, 212° | 0 W/m² | - |
| 1778009473 | 15° C | 63% | 1006.5 hPa | 0 mm | 1.79 m/s, 214° | 0 W/m² | - |
| 1778008873 | 15.56° C | 61% | 1006.3 hPa | 0 mm | 3.13 m/s, 225° | 0 W/m² | - |
| 1778008273 | 15.56° C | 60% | 1006.4 hPa | 0 mm | 1.79 m/s, 234° | 0 W/m² | - |
| 1778007673 | 15.56° C | 59% | 1006.2 hPa | 0 mm | 4.02 m/s, 227° | 0 W/m² | - |
| 1778007073 | 15.56° C | 60% | 1006 hPa | 0 mm | 2.68 m/s, 229° | 0 W/m² | - |
| 1778006472 | 15.56° C | 65% | 1006 hPa | 0 mm | 1.79 m/s, 220° | 0 W/m² | - |
| 1778005873 | 16.11° C | 69% | 1006.1 hPa | 0 mm | 1.34 m/s, 108° | 0 W/m² | - |
| 1778005272 | 16.67° C | 69% | 1006.1 hPa | 0 mm | 0.45 m/s, 77° | 0 W/m² | - |
| 1778004672 | 16.67° C | 68% | 1005.7 hPa | 0 mm | 0.89 m/s, 63° | 0 W/m² | - |
| 1778004072 | 16.67° C | 67% | 1005.6 hPa | 0 mm | 0.89 m/s, 5° | 0 W/m² | - |
| 1778003472 | 17.22° C | 67% | 1005.5 hPa | 0 mm | 0.45 m/s, 5° | 0 W/m² | - |
| 1778002872 | 17.22° C | 67% | 1005.3 hPa | 0 mm | 0.89 m/s, 5° | 0 W/m² | - |
| 1778002272 | 17.22° C | 66% | 1005.1 hPa | 0 mm | 0.89 m/s, 5° | 0 W/m² | - |
| 1778001672 | 17.22° C | 66% | 1004.9 hPa | 0 mm | 0.45 m/s, 5° | 0 W/m² | - |
| 1778001072 | 17.78° C | 66% | 1004.7 hPa | 0 mm | 0.45 m/s, 5° | 0 W/m² | - |
| 1778000472 | 17.78° C | 66% | 1004.7 hPa | 0 mm | 1.34 m/s, 5° | 0 W/m² | - |
| 1777999872 | 17.78° C | 65% | 1004.6 hPa | 0 mm | 0.89 m/s, 5° | 0 W/m² | - |
| 1777999271 | 17.78° C | 64% | 1004.6 hPa | 0 mm | 1.34 m/s, 24° | 0 W/m² | - |
| 1777998672 | 18.33° C | 63% | 1004.5 hPa | 0 mm | 1.79 m/s, 17° | 0 W/m² | - |
| 1777998071 | 18.33° C | 62% | 1004.5 hPa | 0 mm | 1.79 m/s, 28° | 0 W/m² | - |
| 1777997471 | 18.33° C | 62% | 1004.3 hPa | 0 mm | 1.79 m/s, 26° | 0 W/m² | - |
| 1777996871 | 18.33° C | 61% | 1004.2 hPa | 0 mm | 1.34 m/s, 360° | 0 W/m² | - |
* Rain latest hour (hover to see other rain measurements)
** Current wind speed in m/s (hover to see current wind gust speed)